Flag for Norway Weather past 2 weeks in Bryne, Norway

Now
58 °F

Cool.


Feels Like: 56 °F
Forecast: 53 / 63 °F
Wind: 7 mph from North

Location: Obrestad

Current Time: Sep 1, 2015 at 2:51:10 PM

Latest Report: Sep 1, 2015 at 2:00 PM


Visibility: N/A

Pressure: 29.85 "Hg

Humidity: 86%

Dew point: 53 °F

Location of BryneLocation

Historic Weather in Bryne — Graph

°F

Bryne temperature yesterday

Maximum temperature yesterday: 62 °F (at 11:00 AM)
Minimum temperature yesterday: 55 °F (at 6:00 AM)
Average temperature yesterday: 58 °F

Past Weeks' High & Low Weather Summary

 TemperatureHumidityPressure
High75 °F (Aug 19, 3:00 PM)95% (Aug 26, 1:00 AM)30.26 "Hg (Aug 26, 1:00 AM)
Low55 °F (Aug 31, 6:00 AM)38% (Aug 19, 3:00 PM)29.47 "Hg (Aug 25, 5:00 PM)
Average63 °F74%29.94 "Hg
* Reported Aug 17 1:00 PM — Sep 1 1:00 PM, Bryne, Weather by CustomWeather, © 2015

Note: Actual official high and low records may vary slightly from our data, if they occured in-between our weather recording intervals... More about our weather records

Advertising

Bryne weather history for previous 24 hours

 ConditionsComfort  
Time TempWeatherWind HumidityBarometerVisibility
1:00 PM
Tue, Sep 1
58 °FCool.6 mph88%29.85 "HgN/A
12:00 PM58 °FCool.3 mph88%29.85 "HgN/A
11:00 AM58 °FCool.3 mph88%29.85 "HgN/A
10:00 AM57 °FCool.3 mph89%29.85 "HgN/A
9:00 AM56 °FCool.3 mph91%29.85 "HgN/A
8:00 AM55 °FCool.3 mph93%29.86 "HgN/A
7:00 AM55 °FCool.2 mph92%29.87 "HgN/A
6:00 AM56 °FCool.2 mph89%29.87 "HgN/A
4:00 AM56 °FCool.3 mph93%29.87 "HgN/A
3:00 AM56 °FCool.5 mph92%29.88 "HgN/A
2:00 AM56 °FCool.3 mph91%29.88 "HgN/A
1:00 AM55 °FCool.5 mph91%29.90 "HgN/A
12:00 AM56 °FCool.5 mph90%29.92 "HgN/A
11:00 PM
Mon, Aug 31
56 °FCool.3 mph90%29.94 "HgN/A
10:00 PM56 °FCool.3 mph89%29.95 "HgN/A
9:00 PM56 °FCool.3 mph87%29.96 "HgN/A
8:00 PM57 °FCool.3 mph84%29.97 "HgN/A
7:00 PM59 °FCool.5 mph77%29.97 "HgN/A
6:00 PM59 °FCool.5 mph75%29.98 "HgN/A
5:00 PM60 °FCool.5 mph69%29.99 "HgN/A
4:00 PM61 °FCool.3 mph73%30.01 "HgN/A
3:00 PM61 °FCool.3 mph75%30.02 "HgN/A
2:00 PM61 °FCool.2 mph77%30.02 "HgN/A
Weather by CustomWeather, © 2015

See weather overviewHow to use our weather pages